Find Starlink 37675

NORAD ID: 100299 Int'l Des: 2026-183 Owner: SPXS Country: US Constellation: starlink operational

Aktuelle Ansicht

3D-Globus wird geladen...

About Starlink 37675

Starlink 37675 (NORAD 100299) is a starlink constellation satellite launched Aug 11, 2026 by SPXS of US. with a mass of 575.00 kg.

Nächste Überflüge

Passes for default location (London). Set your location on the main map for personalized predictions.

Höhenverlauf

Loading altitude history...

Zweizeiliger Elementsatz

1 A0299U 26183AD 26262.70406271 .00049124 00000-0 88513-3 0 9993
2 A0299 53.1590 261.6504 0001107 76.3829 283.7304 15.49329370 6177
Epoch: 19. Sept. 2026 • Age: 25 hours

Aktueller Status

Höhe 422.2 km
Apogäum / Perigäum N/A
Geschwindigkeit 7.66 km/s
Subsatellitenpunkt 43.69°N, 118.8°E
Startdatum 11. Aug. 2026
Alter 0.1 years
Typ internet

Technische Details

Klassifizierung Payload
Masse 575.00 kg
Trockenmasse 530.00 kg
Länge 0.30 m
Spannweite 29.00 m
Form ? Box + pan
Hersteller SPXS
Bus-Typ Starlink V2MO
Phasenstatus In Orbit
Besitzer/Staat SPXS/US

Most Searched